"TOA5","AWS1","CR1000","7964","CR1000.Std.14","CPU:AWS1_114.CR1","64363","TBL110"
"TIMESTAMP","RECORD","Wind_spd_WVc(1)","Wind_spd_WVc(2)","Air_Temp_Avg","Humidity_Avg","SW_upper_Wm2_Avg","Rain_Tot","Press_Avg","Issui_Tot","Depth_cm","SR50A_Raw","Quality","Ground_Temp_Avg(1)","Ground_Temp_Avg(2)","SW_lower_Wm2_Avg","Albedo_Avg","SWC_per(1)","SWC_per(2)","Period(1)","Period(2)"
"TS","RN","","","","","","","","","","","","","","","","","","",""
"","","WVc","WVc","Avg","Avg","Avg","Tot","Avg","Tot","Smp","Smp","Smp","Avg","Avg","Avg","Avg","Smp","Smp","Smp","Smp"
"2016-05-15 00:00:00",235501,0.147,294.3,11.74,92.2,0,0,873.9633,0,-4.826,3.162,198,15.75,14.02,0,0,48.75,56.75,32.99,34.93
"2016-05-15 00:10:00",235502,0.113,11.49,11.6,97.8,0,0,873.9443,0,-4.21,3.155,197,15.72,14.02,0.1856875,0,48.75,56.75,32.99,34.93
"2016-05-15 00:20:00",235503,0.119,20.89,11.64,98.7,0,0,873.7884,0,-2.76,3.142,236,15.71,14.02,0.181898,0,48.7,56.75,32.97,34.93
"2016-05-15 00:30:00",235504,0.054,284.1,11.5,100,0,0,873.7253,0,-3.985,3.154,225,15.62,14.02,0,0,48.7,56.75,32.97,34.93
"2016-05-15 00:40:00",235505,0.004,164.2,11.45,100,0,0,873.7253,0,-5.621,3.171,219,15.66,14.02,0,0,48.7,56.75,32.97,34.93
"2016-05-15 00:50:00",235506,0.02,147.1,11.15,100,0,0,873.6683,0,-4.759,3.164,221,15.54,14.02,0,0,48.7,56.7,32.97,34.91
"2016-05-15 01:00:00",235507,0.177,156.2,11.05,100,0,0,873.4893,0,-3.258,3.15,313,15.58,14.02,0,0,48.7,56.7,32.97,34.91
"2016-05-15 01:10:00",235508,0.057,169.7,11.16,100,0,0,873.4725,0,-3.585,3.152,210,15.57,14.02,0.3600064,0,48.7,56.7,32.97,34.91
"2016-05-15 01:20:00",235509,0.036,156.6,11.19,100,0,0,873.3019,0,-3.434,3.151,210,15.5,14.02,0.4433763,0,48.7,56.7,32.97,34.91
"2016-05-15 01:30:00",235510,0.108,152.5,11.07,100,0,0,873.2197,0,-3.026,3.147,216,15.47,14.02,0.3941123,0,48.7,56.7,32.97,34.91
"2016-05-15 01:40:00",235511,0.349,128.4,11.09,100,0,0,873.1545,0,-2.797,3.145,229,15.42,14.02,0.2122143,0,48.7,56.7,32.97,34.91
"2016-05-15 01:50:00",235512,0.11,134.4,11.03,100,0,0,872.9755,0,-2.797,3.145,229,15.37,14.02,0.07958036,0,48.7,56.7,32.97,34.91
"2016-05-15 02:00:00",235513,0.143,50.77,11.24,99.3,0,0,872.967,0,-2.613,3.142,253,15.41,14.02,0.4509554,0,48.7,56.7,32.97,34.91
"2016-05-15 02:10:00",235514,0.028,160.2,11.33,100,0,0,872.9628,0,-2.861,3.143,232,15.34,14.02,0.4547449,0,48.7,56.7,32.97,34.91
"2016-05-15 02:20:00",235515,0.001,161.4,11.45,99.9,0,0,872.7859,0,-2.789,3.143,232,15.29,14.02,0.4547449,0,48.7,56.7,32.97,34.91
"2016-05-15 02:30:00",235516,0.106,130.8,11.34,99.9,0,0,872.748,0,-2.764,3.143,235,15.31,14.02,0.181898,0,48.65,56.7,32.96,34.91
"2016-05-15 02:40:00",235517,0.212,157.4,11.14,100,0,0,872.5584,0,-2.621,3.144,217,15.2,14.01,0,0,48.75,56.64,32.99,34.9
"2016-05-15 02:50:00",235518,0.045,179.2,10.71,100,0,0,872.4615,0,-2.474,3.144,216,15.23,14.03,0,0,48.7,56.64,32.97,34.9
"2016-05-15 03:00:00",235519,0.025,146,10.49,100,0,0,872.3583,0,-2.429,3.145,206,15.22,13.97,0,0,48.7,56.64,32.97,34.9
"2016-05-15 03:10:00",235520,0.108,191.4,10.15,100,0,0,872.2151,0,-2.34,3.147,221,15.19,13.93,0,0,48.7,56.64,32.97,34.9
"2016-05-15 03:20:00",235521,0.219,193.9,9.61,100,0,0,872.2509,0,-2.399,3.15,228,15.15,13.93,0,0,48.7,56.64,32.97,34.9
"2016-05-15 03:30:00",235522,0.178,201.9,9.51,100,0,0,872.3878,0,-2.603,3.152,231,15.08,13.93,0,0,48.65,56.64,32.96,34.9
"2016-05-15 03:40:00",235523,0,0,9.52,100,0,0,872.4615,0,-2.553,3.152,216,15.06,13.93,0.09473852,0,48.7,56.64,32.97,34.9
"2016-05-15 03:50:00",235524,0.03,189.3,8.98,100,0,0,872.4594,0,-2.283,3.152,205,15.03,13.96,0.0189477,0,48.7,56.7,32.97,34.91
"2016-05-15 04:00:00",235525,0,0,9.15,100,0,0,872.2762,0,-2.353,3.151,204,14.97,13.99,0.6328533,0,48.7,56.64,32.97,34.9
"2016-05-15 04:10:00",235526,0,0,9.08,100,0,0,872.1645,0,-2.406,3.152,205,14.96,14,0.4547449,0,48.65,56.64,32.96,34.9
"2016-05-15 04:20:00",235527,0.027,156.5,9.23,100,0,0,871.9876,0,-2.658,3.154,204,14.88,13.99,0.6631697,0,48.7,56.64,32.97,34.9
"2016-05-15 04:30:00",235528,0.092,158.9,8.86,100,0,0,871.9561,0,-2.307,3.152,219,14.9,13.94,0.1098967,0,48.7,56.58,32.97,34.88
"2016-05-15 04:40:00",235529,0.023,157.7,9.04,100,0.8568018,0,871.9561,0,-2.202,3.15,227,14.85,13.93,0.7995932,0.539,48.65,56.58,32.96,34.88
"2016-05-15 04:50:00",235530,0.028,157.9,8.83,100,4.311521,0,871.9602,0,-2.615,3.156,208,14.8,13.93,1.436236,0.347,48.7,56.64,32.97,34.9
"2016-05-15 05:00:00",235531,0.065,145.1,8.89,100,11.07161,0,871.9602,0,-2.563,3.155,220,14.78,13.9,2.705732,0.248,48.65,56.64,32.96,34.9
"2016-05-15 05:10:00",235532,0.147,145.8,8.86,100,21.36109,0,871.9561,0,-2.815,3.157,209,14.71,13.87,4.316287,0.202,48.7,56.64,32.97,34.9
"2016-05-15 05:20:00",235533,0.086,126.3,9.32,100,35.01525,0,871.9561,0,-2.703,3.152,222,14.72,13.86,6.840191,0.195,48.7,56.64,32.97,34.9
"2016-05-15 05:30:00",235534,0.046,52.73,9.85,100,46.50755,0,871.9034,0,-2.671,3.15,224,14.67,13.85,8.909307,0.192,48.7,56.64,32.97,34.9
"2016-05-15 05:40:00",235535,0.151,28.69,10.06,100,67.97068,0,871.9202,0,-3.021,3.152,208,14.63,13.84,12.60029,0.185,48.7,56.64,32.97,34.9
"2016-05-15 05:50:00",235536,0.17,56.22,10.25,100,66.49661,0,871.9561,0,-3.07,3.152,214,14.62,13.84,11.73244,0.176,48.7,56.64,32.97,34.9
"2016-05-15 06:00:00",235537,0.253,342.4,10.32,100,64.33488,0,871.9602,0,-4.418,3.165,189,14.55,13.84,10.93663,0.17,48.65,56.58,32.96,34.88
"2016-05-15 06:10:00",235538,0.287,126.7,10.36,100,59.87399,0,871.9561,0,-4.598,3.167,194,14.54,13.84,9.492809,0.159,48.7,56.58,32.97,34.88
"2016-05-15 06:20:00",235539,0.209,136,10.35,100,96.04835,0,871.9561,0,-4.668,3.166,193,14.54,13.84,16.56789,0.17,48.65,56.58,32.96,34.88
"2016-05-15 06:30:00",235540,0.347,109.1,10.6,99.5,145.8569,0,872.0255,0,-4.767,3.166,189,14.54,13.84,25.78406,0.176,48.65,56.58,32.96,34.88
"2016-05-15 06:40:00",235541,0.379,131.3,10.85,95.8,162.2776,0,872.1371,0,-4.126,3.159,204,14.53,13.84,30.31635,0.186,48.65,56.58,32.96,34.88
"2016-05-15 06:50:00",235542,0.156,149.4,10.93,94.4,152.2554,0,872.0887,0,-4.376,3.16,214,14.45,13.84,25.49227,0.167,48.7,56.58,32.97,34.88
"2016-05-15 07:00:00",235543,0.419,132.1,11.09,94,157.463,0,872.0508,0,-5.4,3.171,189,14.39,13.84,25.50742,0.162,48.65,56.58,32.96,34.88
"2016-05-15 07:10:00",235544,0.479,141.3,10.85,96,160.7605,0,872.173,0,-4.942,3.167,188,14.4,13.84,26.09859,0.162,48.7,56.58,32.97,34.88
"2016-05-15 07:20:00",235545,0.591,140.8,10.88,96.1,190.5835,0,872.2088,0,-2.442,3.142,257,14.41,13.84,32.18839,0.169,48.65,56.58,32.96,34.88
"2016-05-15 07:30:00",235546,0.651,141.5,10.95,94.4,235.3927,0,872.1708,0,-2.516,3.142,238,14.41,13.84,40.96119,0.174,48.65,56.58,32.96,34.88
"2016-05-15 07:40:00",235547,0.814,133.8,11.3,91.2,226.3295,0,872.1814,0,-4.442,3.158,204,14.41,13.84,41.26814,0.186,48.7,56.58,32.97,34.88
"2016-05-15 07:50:00",235548,0.408,143.3,12.29,84.7,524.8388,0,872.1231,0,-5.614,3.163,197,14.41,13.84,62.7127,0.12,48.7,56.58,32.97,34.88
"2016-05-15 08:00:00",235549,0.765,20.91,12.78,81.8,605.0003,0,871.9731,0,-4.547,3.155,193,14.36,13.81,90.5796,0.15,48.7,56.58,32.97,34.88
"2016-05-15 08:10:00",235550,0.571,18.84,12.22,84.9,356.9809,0,872.0095,0,-3.355,3.145,217,14.34,13.78,55.32893,0.154,48.65,56.52,32.96,34.87
"2016-05-15 08:20:00",235551,0.795,8.28,12.07,89.1,481.3597,0,871.9578,0,-2.864,3.137,203,14.32,13.78,80.13712,0.164,48.7,56.52,32.97,34.87
"2016-05-15 08:30:00",235552,0.567,5.733,12.67,84.9,589.9188,0,871.9364,0,-4.257,3.149,193,14.3,13.74,101.1533,0.169,48.7,56.52,32.97,34.87
"2016-05-15 08:40:00",235553,0.862,32.32,13.18,82.6,563.5706,0,871.8632,0,-3.002,3.137,213,14.32,13.7,93.48376,0.164,48.7,56.52,32.97,34.87
"2016-05-15 08:50:00",235554,0.419,35.37,12.69,85.9,540.2513,0,871.8629,0,-2.635,3.132,218,14.32,13.66,87.4331,0.158,48.7,56.52,32.97,34.87
"2016-05-15 09:00:00",235555,0.698,115.4,14.11,79.09,821.3508,0,871.8585,0,-4.83,3.147,195,14.34,13.64,133.8845,0.163,48.65,56.52,32.96,34.87
"2016-05-15 09:10:00",235556,0.453,97,15.15,73.71,855.4653,0,871.6543,0,-3.842,3.131,192,14.32,13.65,137.0552,0.16,48.65,56.52,32.96,34.87
"2016-05-15 09:20:00",235557,0.502,6.388,14.72,74.09,821.3124,0,871.648,0,-2.632,3.123,230,14.38,13.62,129.5389,0.158,48.7,56.52,32.97,34.87
"2016-05-15 09:30:00",235558,0.653,15.01,14.62,74.56,870.7982,0,871.6501,0,-3.306,3.128,208,14.39,13.61,139.4169,0.16,48.65,56.52,32.96,34.87
"2016-05-15 09:40:00",235559,0.549,41.04,15.63,70.92,902.8259,0,871.6058,0,-4.412,3.132,201,14.33,13.6,145.2519,0.161,48.65,56.52,32.96,34.87
"2016-05-15 09:50:00",235560,0.594,50.16,15.62,68.7,955.0565,0,871.4901,0,-3.578,3.13,202,14.29,13.58,155.6225,0.163,48.65,56.52,32.96,34.87
"2016-05-15 10:00:00",235561,0.616,77.13,15.13,71.23,794.0909,0,871.3595,0,-4.479,3.135,192,14.31,13.58,127.9563,0.152,48.65,56.52,32.96,34.87
"2016-05-15 10:10:00",235562,0.552,73.87,16.74,65.76,907.1926,0,871.1448,0,-3.845,3.126,251,14.42,13.57,148.7218,0.16,48.65,56.46,32.96,34.86
"2016-05-15 10:20:00",235563,0.438,52.81,16.65,65.96,686.4116,0,871.0712,0,-3.99,3.126,227,14.38,13.56,105.8601,0.143,48.65,56.46,32.96,34.86
"2016-05-15 10:30:00",235564,0.546,311.7,15.89,67.3,623.1923,0,870.8789,0,-3.13,3.127,218,14.4,13.46,99.47932,0.15,48.65,56.46,32.96,34.86
"2016-05-15 10:40:00",235565,0.448,278.9,15.07,71.4,432.4248,0,870.8474,0,-1.717,3.113,246,14.55,13.51,63.79725,0.139,48.65,56.46,32.96,34.86
"2016-05-15 10:50:00",235566,0.33,293.4,15.38,70.8,802.0822,0,870.8468,0,-4.64,3.136,210,14.58,13.52,136.1228,0.162,48.65,56.46,32.96,34.86
"2016-05-15 11:00:00",235567,0.517,326.9,15.47,69.19,434.6014,0,870.716,0,-5.386,3.147,177,14.61,13.52,66.07246,0.143,48.65,56.46,32.96,34.86
"2016-05-15 11:10:00",235568,0.55,287.8,15.48,69.26,571.8133,0,870.5886,0,-4.358,3.137,197,14.7,13.52,91.66281,0.152,48.65,56.46,32.96,34.86
"2016-05-15 11:20:00",235569,0.405,289.1,15.14,70.8,341.6788,0,870.4477,0,-4.063,3.136,186,14.8,13.48,50.81851,0.146,48.59,56.46,32.95,34.86
"2016-05-15 11:30:00",235570,0.343,262.5,15.77,68.57,733.6663,0,870.3467,0,-4.53,3.129,203,14.86,13.46,126.7274,0.168,48.59,56.46,32.95,34.86
"2016-05-15 11:40:00",235571,0.621,330.4,17.38,56.36,789.2206,0,870.3298,0,-5.312,3.134,179,14.94,13.52,131.7701,0.162,48.59,56.46,32.95,34.86
"2016-05-15 11:50:00",235572,0.674,22.63,17.22,53.91,832.3854,0,870.1234,0,-4.528,3.125,203,14.97,13.53,141.4721,0.168,48.59,56.46,32.95,34.86
"2016-05-15 12:00:00",235573,0.9,4.276,17.88,50.81,985.9957,0,869.9844,0,-3.194,3.113,219,15.04,13.53,168.0921,0.17,48.59,56.41,32.95,34.84
"2016-05-15 12:10:00",235574,0.799,356.1,18.08,51.45,890.0784,0,869.8455,0,-2.083,3.099,242,15.1,13.53,151.9997,0.169,48.59,56.41,32.95,34.84
"2016-05-15 12:20:00",235575,0.713,1.994,17.95,48.41,914.7247,0,869.7823,0,-3.936,3.116,203,15.2,13.52,155.4394,0.166,48.54,56.41,32.93,34.84
"2016-05-15 12:30:00",235576,0.707,43.97,18.49,48.2,783.2047,0,869.6308,0,-2.181,3.097,208,15.28,13.49,130.523,0.161,48.54,56.41,32.93,34.84
"2016-05-15 12:40:00",235577,0.466,180.3,18.88,46.98,854.5023,0,869.5315,0,-1.563,3.092,217,15.3,13.44,143.5396,0.162,48.48,56.41,32.92,34.84
"2016-05-15 12:50:00",235578,0.597,2.125,19.16,47.07,1005.098,0,869.3529,0,-5.46,3.126,209,15.39,13.43,171.764,0.169,48.54,56.41,32.93,34.84
"2016-05-15 13:00:00",235579,0.765,343.4,19.09,46.64,915.4413,0,869.3263,0,-3.675,3.112,193,15.48,13.42,154.1833,0.163,48.54,56.41,32.93,34.84
"2016-05-15 13:10:00",235580,0.422,345.2,19.36,47.88,956.7948,0,869.3001,0,-2.898,3.099,204,15.56,13.42,161.3455,0.167,48.48,56.41,32.92,34.84
"2016-05-15 13:20:00",235581,0.642,337.5,19.3,48.28,986.9865,0,869.1291,0,-3.523,3.109,201,15.64,13.4,166.9653,0.168,48.48,56.41,32.92,34.84
"2016-05-15 13:30:00",235582,0.37,111.7,19.68,48.1,984.0248,0,869.0729,0,-2.767,3.098,201,15.75,13.39,166.3504,0.169,48.48,56.35,32.92,34.83
"2016-05-15 13:40:00",235583,0.403,170.7,19.72,47.47,901.2375,0,869.0289,0,-2.862,3.101,229,15.85,13.39,148.1467,0.162,48.48,56.35,32.92,34.83
"2016-05-15 13:50:00",235584,0.595,79.78,19.33,48.12,820.7493,0,868.8497,0,-0.501,3.08,265,15.91,13.4,133.8589,0.159,48.43,56.35,32.9,34.83
"2016-05-15 14:00:00",235585,0.457,106.8,19.01,49.83,527.7601,0,868.83,0,-2.822,3.105,226,16.02,13.41,78.14327,0.137,48.38,56.35,32.89,34.83
"2016-05-15 14:10:00",235586,0.389,121,17.95,53.67,569.2232,0,868.8026,0,-4.148,3.119,180,16.11,13.4,88.13065,0.148,48.38,56.35,32.89,34.83
"2016-05-15 14:20:00",235587,0.418,122.6,18.49,53.71,556.0098,0,868.784,0,-5.376,3.133,185,16.22,13.4,86.96369,0.143,48.38,56.35,32.89,34.83
"2016-05-15 14:30:00",235588,0.444,0.424,17.78,55.11,664.5445,0,868.6487,0,-4.404,3.121,187,16.28,13.42,103.9587,0.151,48.38,56.35,32.89,34.83
"2016-05-15 14:40:00",235589,0.689,63.29,18.13,54.37,516.154,0,868.5763,0,-4.336,3.124,214,16.42,13.47,73.98904,0.138,48.32,56.35,32.88,34.83
"2016-05-15 14:50:00",235590,0.615,81.6,17.72,56.88,413.5773,0,868.5777,0,-4.265,3.123,184,16.51,13.5,57.30009,0.138,48.32,56.29,32.88,34.82
"2016-05-15 15:00:00",235591,0.392,154.4,17.9,56.98,540.6248,0,868.578,0,-4.27,3.123,193,16.61,13.52,69.90938,0.132,48.32,56.29,32.88,34.82
"2016-05-15 15:10:00",235592,0.404,69.27,17.36,58.36,359.7962,0,868.578,0,-2.818,3.111,224,16.64,13.53,44.93563,0.13,48.32,56.29,32.88,34.82
"2016-05-15 15:20:00",235593,0.473,57.66,17.22,59.24,250.1391,0,868.578,0,-3.428,3.119,211,16.72,13.53,35.41619,0.144,48.32,56.29,32.88,34.82
"2016-05-15 15:30:00",235594,0.45,297.5,16.6,61.47,203.4051,0,868.5738,0,-4.175,3.13,193,16.75,13.54,29.99154,0.147,48.27,56.29,32.86,34.82
"2016-05-15 15:40:00",235595,0.385,104.9,16.36,63.88,149.4098,0,868.578,0,-0.517,3.094,309,16.84,13.54,21.72939,0.145,48.27,56.29,32.86,34.82
"2016-05-15 15:50:00",235596,0.38,329.7,16.2,64.33,129.7415,0,868.6412,0,-4.907,3.139,182,16.85,13.54,18.67985,0.143,48.27,56.29,32.86,34.82
"2016-05-15 16:00:00",235597,0.33,312.9,15.82,65.84,124.3393,0,868.6811,0,-4.344,3.134,189,16.98,13.6,18.35406,0.147,48.27,56.29,32.86,34.82
"2016-05-15 16:10:00",235598,0.513,116.9,15.81,66.05,160.3441,0,868.578,0,-4.556,3.137,199,16.98,13.62,24.85091,0.154,48.21,56.29,32.85,34.82
"2016-05-15 16:20:00",235599,0.646,141.6,15.59,66.74,170.6418,0,868.578,0,-4.15,3.134,181,16.94,13.62,27.1769,0.159,48.21,56.23,32.85,34.8
"2016-05-15 16:30:00",235600,0.849,141.4,15.5,66.82,165.0352,0,868.578,0,-4.411,3.137,181,16.98,13.64,27.39283,0.166,48.27,56.29,32.86,34.82
"2016-05-15 16:40:00",235601,0.703,146.3,15.54,66.16,184.6996,0,868.578,0,-4.066,3.132,196,17.02,13.68,30.6886,0.166,48.21,56.29,32.85,34.82
"2016-05-15 16:50:00",235602,0.579,145.3,15.81,65.6,141.1944,0,868.4453,0,-3.679,3.128,187,17.02,13.72,22.87345,0.161,48.21,56.23,32.85,34.8
"2016-05-15 17:00:00",235603,0.343,139.2,15.74,66.36,139.1907,0,868.4243,0,-5.373,3.144,177,17.02,13.73,22.65751,0.163,48.16,56.29,32.84,34.82
"2016-05-15 17:10:00",235604,0.315,127,15.97,66.75,144.9505,0,868.4791,0,-3.46,3.124,195,17.02,13.78,24.16903,0.167,48.16,56.23,32.84,34.8
"2016-05-15 17:20:00",235605,0.266,138.4,15.92,67.66,115.7899,0,868.5338,0,-4.145,3.133,198,17.02,13.76,17.58884,0.151,48.16,56.29,32.84,34.82
"2016-05-15 17:30:00",235606,0.304,134.3,15.4,69.36,91.58366,0,868.5527,0,-5.19,3.146,178,17.02,13.8,12.50501,0.136,48.16,56.23,32.84,34.8
"2016-05-15 17:40:00",235607,0.446,137.7,14.75,72,68.76042,0,868.5127,0,-5.367,3.152,193,16.99,13.8,8.504619,0.123,48.16,56.23,32.84,34.8
"2016-05-15 17:50:00",235608,0.333,134.1,14.19,74.67,53.0093,0,868.4874,0,-5.142,3.151,177,17,13.8,6.527153,0.123,48.16,56.23,32.84,34.8
"2016-05-15 18:00:00",235609,0.65,129.1,13.87,76.21,52.13722,0,868.5464,0,-5.183,3.154,180,17,13.81,7.656073,0.147,48.16,56.23,32.84,34.8
"2016-05-15 18:10:00",235610,0.67,155.1,13.43,77.95,36.67338,0,868.5334,0,-4.558,3.15,195,16.94,13.87,5.432441,0.147,48.11,56.23,32.82,34.8
"2016-05-15 18:20:00",235611,0.473,108.4,13.15,79.19,18.71067,0,868.576,0,-2.727,3.133,214,16.99,13.92,2.788307,0.149,48.11,56.23,32.82,34.8
"2016-05-15 18:30:00",235612,0.433,140.8,12.9,80.5,9.564306,0,868.5922,0,-5.283,3.16,180,16.93,14,1.492769,0.158,48.11,56.23,32.82,34.8
"2016-05-15 18:40:00",235613,0.392,139.9,12.61,82.4,3.780396,0,868.7365,0,-4.226,3.151,194,16.95,14.03,0.7615918,0.246,48.11,56.23,32.82,34.8
"2016-05-15 18:50:00",235614,0.434,139.2,12.36,83.9,0.02750957,0,868.8771,0,-4.907,3.159,186,16.97,14.04,0.1023089,0.08,48.11,56.18,32.82,34.79
"2016-05-15 19:00:00",235615,0.27,147.7,12.13,85.7,0,0,868.9086,0,-3.897,3.151,193,16.9,14.04,0,0,48.05,56.18,32.81,34.79
"2016-05-15 19:10:00",235616,0.297,148.3,11.86,89,0,0,868.9568,0,-5.103,3.164,177,16.93,14.02,0,0,48.05,56.18,32.81,34.79
"2016-05-15 19:20:00",235617,0.16,111.3,11.52,98.3,0,0,869.1148,0,-4.52,3.159,186,16.87,14.1,0.049264,0,48.05,56.18,32.81,34.79
"2016-05-15 19:30:00",235618,0.107,36.33,11.65,99.6,0,0,869.1774,0,-4.161,3.155,197,16.83,14.19,0.4888507,0,48.05,56.18,32.81,34.79
"2016-05-15 19:40:00",235619,0.165,107.6,11.7,99,0,0,869.1842,0,-4.467,3.158,176,16.75,14.19,0.5494834,0,48.05,56.18,32.81,34.79
"2016-05-15 19:50:00",235620,0.262,71.21,11.66,99.8,0,0,869.2221,0,-4.491,3.158,173,16.76,14.19,0.4547449,0,48.05,56.18,32.81,34.79
"2016-05-15 20:00:00",235621,0.473,122.1,11.6,99.7,0,0,869.1822,0,-4.394,3.158,195,16.69,14.14,0.322111,0,48.05,56.12,32.81,34.78
"2016-05-15 20:10:00",235622,0.475,128.2,11.49,99.4,0,0,869.1779,0,-4.83,3.163,172,16.67,14.11,0.1136862,0,48.05,56.12,32.81,34.78
"2016-05-15 20:20:00",235623,0.518,124.4,11.35,100,0,0,869.2116,0,-4.499,3.16,190,16.57,14.18,0,0,48,56.12,32.8,34.78
"2016-05-15 20:30:00",235624,0.318,109.9,11.3,100,0,0,869.3506,0,-4.907,3.164,185,16.6,14.27,0.08715944,0,48.05,56.12,32.81,34.78
"2016-05-15 20:40:00",235625,0.334,102.3,11.33,100,0,0,869.3759,0,-4.499,3.16,190,16.54,14.28,0.3486378,0,48,56.12,32.8,34.78
"2016-05-15 20:50:00",235626,0.38,119.1,11.28,100,0,0,869.4138,0,-4.27,3.158,191,16.51,14.27,0.2917947,0,48.05,56.12,32.81,34.78
"2016-05-15 21:00:00",235627,0.312,124,11.27,99.9,0,0,869.3928,0,-4.221,3.158,188,16.43,14.28,0.09094898,0,48,56.06,32.8,34.76
"2016-05-15 21:10:00",235628,0.297,126.5,11.21,99.8,0,0,869.3969,0,-4.172,3.158,181,16.42,14.26,0.07200127,0,48,56.12,32.8,34.78
"2016-05-15 21:20:00",235629,0.374,50.44,11.07,100,0,0,869.4286,0,-3.919,3.156,188,16.32,14.22,0.003789541,0,48,56.06,32.8,34.76
"2016-05-15 21:30:00",235630,0.205,96.2,11.07,100,0,0,869.4286,0,-3.968,3.156,197,16.34,14.21,0.1212653,0,48.05,56.06,32.81,34.76
"2016-05-15 21:40:00",235631,0.223,109.4,11.05,99.9,0,0,869.3928,0,-4.045,3.157,178,16.27,14.25,0.05305357,0,48,56.06,32.8,34.76
"2016-05-15 21:50:00",235632,0.349,93.9,10.95,99.8,0,0,869.3506,0,-3.922,3.157,192,16.25,14.31,0.003789541,0,48,56.06,32.8,34.76
"2016-05-15 22:00:00",235633,0.223,83,10.89,100,0,0,869.1843,0,-3.694,3.155,188,16.24,14.36,0.01515816,0,48,56.06,32.8,34.76
"2016-05-15 22:10:00",235634,0.205,58.39,10.83,100,0,0,869.1758,0,-3.543,3.154,193,16.2,14.36,0.05684311,0,48,56.06,32.8,34.76
"2016-05-15 22:20:00",235635,0.199,72.71,10.71,100,0,0,869.119,0,-3.111,3.15,205,16.15,14.36,0,0,48,56.06,32.8,34.76
"2016-05-15 22:30:00",235636,0.229,118.3,10.7,100,0,0,868.9821,0,-3.572,3.155,184,16.08,14.36,0.02273725,0,48,56.06,32.8,34.76
"2016-05-15 22:40:00",235637,0.292,105.6,10.66,100,0,0,868.923,0,-3.343,3.153,205,16.08,14.36,0,0,48,56,32.8,34.75
"2016-05-15 22:50:00",235638,0.337,132.5,10.55,100,0,0,868.923,0,-3.75,3.157,192,16.05,14.36,0.007579082,0,48,56,32.8,34.75
"2016-05-15 23:00:00",235639,0.48,117,10.48,100,0,0,868.923,0,-3.599,3.156,184,15.98,14.36,0.007579082,0,48,56,32.8,34.75
"2016-05-15 23:10:00",235640,0.297,135.8,10.46,100,0,0,868.744,0,-3.526,3.156,188,15.98,14.36,0.03410587,0,48,56,32.8,34.75
"2016-05-15 23:20:00",235641,0.545,142.3,10.29,100,0,0,868.5124,0,-3.554,3.157,199,15.89,14.36,0,0,47.95,56,32.78,34.75
"2016-05-15 23:30:00",235642,0.46,155.2,10.15,100,0,0,868.3776,0,-4.217,3.164,185,15.93,14.36,0,0,48,56,32.8,34.75
"2016-05-15 23:40:00",235643,0.178,144.5,10.12,100,0,0,868.1838,0,-4.344,3.165,177,15.84,14.36,0,0,48,56,32.8,34.75
"2016-05-15 23:50:00",235644,0.341,288.6,9.97,100,0,0,868.1669,0,-4.298,3.166,196,15.81,14.36,0,0,48,56,32.8,34.75
